[[{"header":{"parameterUnit":"m.s-1","parameterCategory":1,"la1":30.2991,"la2":30.254,"lo1":-89.0895,"lo2":-89.0444,"dy":0.0017,"dx":0.0017,"nx":28,"ny":28,"refTime":"2024-02-27T03:00:00:Z","depth":0,"parameterNumber":2,"parameterNumberName":"U-component_of_WINDS"},"data":[0,0,0,0,0,0,0,0,0,0,0,0,0,0,0,0,0,0,0,0,0,0,0,0,0,0,0,0,0,0,0,0,0,0,0,0,0,0,0,0,0,0,0,0,0,0,0,0,0,0,0,0,0,0,0,0,0,0,-1.9221,-1.922,0,-1.918,-1.918,-1.9179,-1.9115,-1.9114,-1.9113,-1.9112,-1.9072,-1.9072,-1.9072,0,0,0,0,0,0,0,0,0,0,0,0,0,-1.9243,-1.9243,-1.9221,-1.922,-1.922,-1.918,-1.918,-1.9179,-1.9115,-1.9114,-1.9112,-1.9111,-1.9072,-1.9072,-1.9072,0,0,0,0,0,0,0,0,0,0,0,0,0,-1.9221,-1.9243,-1.9221,-1.9183,-1.9179,-1.918,-1.918,-1.9179,-1.9116,-1.9114,-1.9112,-1.911,-1.9072,-1.9072,-1.9072,-1.9107,0,0,-1.9072,-1.9072,0,0,0,0,0,0,0,0,-1.9223,-1.9221,-1.9189,-1.9186,-1.9181,-1.9151,-1.9173,-1.9155,-1.9116,-1.914,-1.9112,-1.911,-1.91,-1.9097,-1.9093,-1.9105,-1.9103,-1.9072,-1.9072,-1.9072,-1.9072,0,0,0,0,0,0,0,-1.9224,-1.9222,-1.9205,-1.9189,-1.9184,-1.9168,-1.9163,-1.9169,-1.913,-1.9138,-1.9133,-1.9129,-1.9097,-1.9094,-1.9092,-1.9103,-1.9072,-1.9072,-1.9072,-1.9072,-1.9139,-1.9141,0,0,0,0,0,0,-1.9231,-1.9224,-1.9206,-1.9203,-1.9198,-1.9169,-1.9164,-1.9162,-1.913,-1.9123,-1.913,-1.9126,-1.9094,-1.9092,-1.909,-1.9127,-1.9072,-1.9072,-1.9072,-1.9137,-1.9139,-1.9141,0,0,0,0,0,0,-1.9232,-1.923,-1.9208,-1.9212,-1.9208,-1.9171,-1.917,-1.9163,-1.9159,-1.9124,-1.9117,-1.9134,-1.9093,-1.909,-1.9103,-1.9125,-1.9072,-1.9072,-1.9135,-1.9138,-1.914,-1.9203,0,0,0,0,0,0,-1.9233,-1.9231,-1.9244,-1.9213,-1.9208,-1.922,-1.9171,-1.9163,-1.9159,-1.9153,-1.9126,-1.9119,-1.9091,-1.9103,-1.9103,-1.9124,-1.9072,-1.9133,-1.9136,-1.914,-1.9198,-1.9207,-1.9215,0,0,0,0,0,-1.9234,-1.9264,-1.9245,-1.9243,-1.9223,-1.9222,-1.9219,-1.9186,-1.9161,-1.9173,-1.9151,-1.912,-1.9123,-1.9105,-1.9104,-1.9126,-1.9131,-1.9136,-1.9139,-1.9195,-1.9205,-1.9214,0,0,0,0,0,0,-1.9299,-1.9259,-1.9237,-1.9258,-1.9244,-1.9211,-1.9225,-1.9198,-1.9191,-1.9186,-1.9145,-1.914,-1.9157,-1.9143,-1.9123,-1.9157,-1.9123,-1.9127,-1.9165,-1.9175,-1.9183,-1.9184,-1.9072,0,0,0,0,0,-1.9315,-1.9317,-1.9283,-1.9304,-1.9298,-1.9263,-1.9262,-1.9237,-1.9221,-1.9214,-1.9193,-1.9179,-1.9176,-1.9175,-1.9171,-1.9197,-1.9189,-1.9212,-1.922,-1.9227,-1.923,-1.924,-1.9249,-1.9154,-1.9154,-1.9154,0,0,-1.935,-1.9328,-1.9332,-1.9317,-1.9302,-1.9305,-1.9259,-1.9264,-1.9265,-1.9215,-1.9224,-1.9209,-1.919,-1.9209,-1.9216,-1.9198,-1.9254,-1.9232,-1.9237,-1.9236,-1.9245,-1.9254,-1.9262,-1.9157,-1.9157,-1.9156,0,0,-1.9413,-1.9398,-1.9413,-1.9399,-1.9378,-1.9355,-1.9359,-1.933,-1.9317,-1.9326,-1.9288,-1.929,-1.9287,-1.9274,-1.9268,-1.9326,-1.9297,-1.9326,-1.9367,-1.9378,-1.9385,-1.9392,-1.941,-1.9417,-1.933,-1.933,-1.933,0,-1.9458,-1.946,-1.9424,-1.9431,-1.9424,-1.938,-1.9394,-1.9383,-1.9363,-1.9359,-1.9339,-1.9333,-1.9318,-1.9332,-1.9346,-1.9343,-1.9345,-1.9328,-1.9387,-1.9393,-1.9399,-1.9415,-1.9423,-1.9334,-1.9333,-1.9333,-1.9333,0,-1.9515,-1.9517,-1.9532,-1.9511,-1.9507,-1.9518,-1.9484,-1.9484,-1.9461,-1.9439,-1.9448,-1.9428,-1.9418,-1.942,-1.9398,-1.9431,-1.942,-1.9395,-1.9358,-1.9412,-1.9427,-1.9433,-1.9339,-1.9337,-1.9336,-1.9335,0,0,-1.9616,-1.9576,-1.9582,-1.9571,-1.9545,-1.9545,-1.9554,-1.9544,-1.9544,-1.9532,-1.9537,-1.9535,-1.9511,-1.9503,-1.9479,-1.9489,-1.9533,-1.9462,-1.9461,-1.9473,-1.9566,-1.9583,-1.9591,-1.9515,-1.9516,-1.9517,-1.9566,0,-1.9672,-1.9683,-1.9651,-1.967,-1.9671,-1.9628,-1.9636,-1.962,-1.9601,-1.9599,-1.9578,-1.9576,-1.9546,-1.954,-1.9549,-1.9526,-1.9551,-1.9523,-1.9518,-1.9518,-1.9521,-1.9599,-1.9618,-1.9665,-1.9572,-1.9573,-1.9574,0,-1.9737,-1.9727,-1.9746,-1.9717,-1.9716,-1.9723,-1.971,-1.9709,-1.9691,-1.9676,-1.9668,-1.9639,-1.9645,-1.9613,-1.962,-1.9601,-1.9598,-1.9587,-1.9588,-1.9584,-1.9547,-1.9595,-1.968,-1.9686,-1.9584,-1.9583,-1.9582,0,-1.9806,-1.9797,-1.9806,-1.9799,-1.9767,-1.9772,-1.9759,-1.9739,-1.9734,-1.9724,-1.972,-1.9711,-1.9705,-1.9699,-1.9668,-1.9648,-1.9678,-1.9644,-1.9665,-1.9665,-1.9671,-1.967,-1.9754,-1.9674,-1.9673,-1.9673,-1.9673,0,-1.9869,-1.9882,-1.9836,-1.9842,-1.9855,-1.9819,-1.9832,-1.9815,-1.9798,-1.9799,-1.9763,-1.9765,-1.9726,-1.9724,-1.97,-1.9708,-1.9707,-1.9694,-1.9687,-1.9696,-1.9697,-1.9691,-1.9686,-1.9675,-1.9675,-1.9674,-1.9674,0,-1.9946,-1.9917,-1.9924,-1.9892,-1.9885,-1.9895,-1.9868,-1.9872,-1.9851,-1.9853,-1.9851,-1.9818,-1.9813,-1.9783,-1.9772,-1.9756,-1.9772,-1.976,-1.9777,-1.9772,-1.9794,-1.9791,-1.9874,-1.9882,-1.98,-1.9801,-1.9801,0,-1.9987,-1.9996,-1.9965,-1.9963,-1.9951,-1.9949,-1.9943,-1.9909,-1.9905,-1.9884,-1.989,-1.9882,-1.9874,-1.9868,-1.9843,-1.9834,-1.982,-1.985,-1.9818,-1.9826,-1.9817,-1.9816,-1.9815,-1.9855,-1.9857,-1.9857,-1.9858,0,-2.0063,-2.0047,-2.0041,-2.0029,-2.0023,-2.0013,-2.0,-2.0,-1.9962,-1.9959,-1.9953,-1.9947,-1.9935,-1.9927,-1.9914,-1.99,-1.9872,-1.9869,-1.9872,-1.988,-1.9888,-1.9881,-1.9792,-1.9866,-1.9865,-1.9865,-1.9864,-1.9864,-2.0121,-2.0126,-2.0104,-2.0098,-2.0084,-2.0073,-2.0074,-2.0053,-2.0047,-2.0034,-2.0014,-2.0011,-1.9992,-1.997,-1.9959,-1.9956,-1.994,-1.9946,-1.9947,-1.9949,-1.9952,-1.9891,-1.9954,-1.9953,-1.9953,-1.9953,-1.9953,0,-2.0192,-2.0176,-2.017,-2.0153,-2.0148,-2.0123,-2.0107,-2.0104,-2.0101,-2.0085,-2.0078,-2.0071,-2.0063,-2.0037,-2.0026,-2.0028,-2.0015,-2.0027,-2.0025,-2.0021,-1.9968,-1.9964,-2.0037,-2.0037,-2.0037,-2.0037,-2.0037,-2.0037,-2.0228,-2.0233,-2.0216,-2.0215,-2.0199,-2.0194,-2.0187,-2.0176,-2.0163,-2.0156,-2.0149,-2.0133,-2.0112,-2.01,-2.0091,-2.0084,-2.008,-2.0096,-2.0084,-2.0034,-2.0026,-2.0018,-2.0014,-2.0096,-2.0096,-2.0137,-2.0137,-2.0137]},{"header":{"parameterUnit":"m.s-1","parameterCategory":1,"la1":30.2991,"la2":30.254,"lo1":-89.0895,"lo2":-89.0444,"dy":0.0017,"dx":0.0017,"nx":28,"ny":28,"refTime":"2024-02-27T03:00:00:Z","depth":0,"parameterNumber":3,"parameterNumberName":"V-component_of_WINDS"},"data":[0,0,0,0,0,0,0,0,0,0,0,0,0,0,0,0,0,0,0,0,0,0,0,0,0,0,0,0,0,0,0,0,0,0,0,0,0,0,0,0,0,0,0,0,0,0,0,0,0,0,0,0,0,0,0,0,0,0,4.6303,4.6303,0,4.6325,4.6325,4.6325,4.6361,4.6362,4.6362,4.6363,4.6381,4.6381,4.638,0,0,0,0,0,0,0,0,0,0,0,0,0,4.629,4.629,4.6303,4.6303,4.6304,4.6325,4.6325,4.6325,4.6361,4.6362,4.6363,4.6363,4.6381,4.6381,4.638,0,0,0,0,0,0,0,0,0,0,0,0,0,4.6302,4.629,4.6303,4.6324,4.6326,4.6325,4.6325,4.6325,4.6361,4.6362,4.6363,4.6364,4.6381,4.6381,4.638,4.6358,0,0,4.638,4.6379,0,0,0,0,0,0,0,0,4.6301,4.6302,4.6321,4.6323,4.6325,4.6341,4.6327,4.6336,4.6361,4.6347,4.6363,4.6364,4.6366,4.6367,4.6369,4.6359,4.636,4.638,4.6379,4.6379,4.6379,0,0,0,0,0,0,0,4.63,4.6301,4.6311,4.6321,4.6324,4.6331,4.6334,4.6329,4.6351,4.6349,4.6351,4.6354,4.6368,4.6369,4.637,4.636,4.638,4.6379,4.6379,4.6379,4.6336,4.6335,0,0,0,0,0,0,4.6297,4.63,4.6311,4.6312,4.6315,4.6331,4.6334,4.6335,4.6351,4.6355,4.6353,4.6355,4.6369,4.637,4.6371,4.6348,4.6379,4.6379,4.6379,4.6337,4.6335,4.6334,0,0,0,0,0,0,4.6296,4.6297,4.631,4.6307,4.6309,4.633,4.6331,4.6335,4.6337,4.6354,4.6358,4.6351,4.637,4.6371,4.6362,4.6349,4.6379,4.6379,4.6338,4.6336,4.6335,4.6301,0,0,0,0,0,0,4.6296,4.6297,4.6289,4.6307,4.6309,4.6302,4.633,4.6335,4.6337,4.634,4.6353,4.6356,4.6371,4.6362,4.6362,4.6349,4.6379,4.6339,4.6337,4.6335,4.6303,4.6298,4.6294,0,0,0,0,0,4.6295,4.6277,4.6289,4.629,4.6301,4.6301,4.6302,4.6321,4.6335,4.6328,4.6339,4.6356,4.635,4.6361,4.6361,4.6348,4.634,4.6338,4.6335,4.6305,4.6299,4.6294,0,0,0,0,0,0,4.6256,4.628,4.6293,4.6281,4.6289,4.6307,4.6298,4.6314,4.6317,4.632,4.6341,4.6344,4.6333,4.6339,4.6351,4.6328,4.6348,4.6345,4.6325,4.6319,4.6315,4.6314,4.6378,0,0,0,0,0,4.6246,4.6246,4.6266,4.6253,4.6257,4.6277,4.6278,4.6292,4.63,4.6303,4.6314,4.6321,4.6321,4.632,4.6321,4.6304,4.6308,4.6295,4.6291,4.6287,4.6285,4.6278,4.6273,4.6327,4.6327,4.6327,0,0,4.6225,4.6239,4.6237,4.6246,4.6254,4.6253,4.6279,4.6276,4.6275,4.6302,4.6296,4.6304,4.6313,4.63,4.6295,4.6305,4.6271,4.6284,4.6281,4.6281,4.6275,4.627,4.6266,4.6325,4.6326,4.6326,0,0,4.6188,4.6197,4.6189,4.6197,4.6209,4.6223,4.6221,4.6237,4.6244,4.6238,4.6259,4.6257,4.6256,4.6263,4.6266,4.6232,4.6247,4.6231,4.6208,4.6201,4.6197,4.6193,4.6183,4.6178,4.6229,4.6229,4.6229,0,4.616,4.616,4.6182,4.6178,4.6182,4.6209,4.62,4.6206,4.6217,4.6219,4.623,4.6232,4.6239,4.6229,4.6222,4.6222,4.6221,4.623,4.6196,4.6193,4.6189,4.618,4.6175,4.6227,4.6227,4.6227,4.6227,0,4.6126,4.6126,4.6117,4.613,4.6133,4.6126,4.6147,4.6147,4.616,4.6173,4.6166,4.6177,4.6181,4.618,4.6192,4.6172,4.6178,4.6192,4.6212,4.6182,4.6173,4.617,4.6224,4.6225,4.6225,4.6226,0,0,4.6064,4.6091,4.6087,4.6095,4.6111,4.611,4.6105,4.6112,4.6112,4.6118,4.6115,4.6115,4.6129,4.6132,4.6145,4.6139,4.6114,4.6154,4.6155,4.6148,4.6094,4.6085,4.608,4.6124,4.6123,4.6123,4.6094,0,4.6031,4.6026,4.6046,4.6035,4.6036,4.6061,4.6057,4.6066,4.6078,4.6079,4.6091,4.6091,4.6108,4.6111,4.6106,4.6118,4.6103,4.612,4.6121,4.6121,4.612,4.6075,4.6064,4.6037,4.6091,4.609,4.609,0,4.5991,4.5999,4.5989,4.6008,4.6009,4.6005,4.6013,4.6014,4.6025,4.6034,4.6038,4.6055,4.6051,4.6069,4.6064,4.6075,4.6076,4.6082,4.6082,4.6084,4.6104,4.6077,4.6028,4.6025,4.6084,4.6084,4.6085,0,4.5949,4.5956,4.5952,4.5957,4.5978,4.5975,4.5984,4.5996,4.5999,4.6005,4.6008,4.6013,4.6016,4.6019,4.6036,4.6048,4.603,4.6049,4.6037,4.6036,4.6033,4.6033,4.5985,4.6031,4.6031,4.6031,4.6031,0,4.591,4.5904,4.5934,4.5931,4.5925,4.5948,4.594,4.5951,4.5962,4.5961,4.5982,4.5981,4.6003,4.6005,4.6017,4.6012,4.6013,4.602,4.6024,4.6019,4.6018,4.6021,4.6024,4.603,4.603,4.6031,4.6031,0,4.5863,4.5883,4.588,4.5901,4.5907,4.5901,4.5919,4.5917,4.593,4.5929,4.593,4.595,4.5953,4.597,4.5976,4.5985,4.5975,4.5982,4.5972,4.5975,4.5963,4.5964,4.5916,4.5911,4.5959,4.5958,4.5958,0,4.5837,4.5833,4.5855,4.5858,4.5866,4.5869,4.5873,4.5895,4.5898,4.5911,4.5908,4.5912,4.5918,4.592,4.5935,4.594,4.5948,4.593,4.5948,4.5944,4.5949,4.595,4.595,4.5927,4.5926,4.5926,4.5925,0,4.5791,4.5802,4.5808,4.5817,4.5822,4.583,4.5839,4.5839,4.5864,4.5866,4.587,4.5874,4.5882,4.5886,4.5894,4.5902,4.5918,4.592,4.5917,4.5913,4.5908,4.5912,4.5964,4.5921,4.5921,4.5921,4.5922,4.5922,4.5755,4.5754,4.577,4.5776,4.5785,4.5794,4.5794,4.5808,4.5813,4.5822,4.5834,4.5837,4.5849,4.5861,4.5868,4.587,4.5879,4.5875,4.5874,4.5873,4.5872,4.5907,4.5871,4.5871,4.5871,4.5871,4.5871,0,4.5712,4.5724,4.5729,4.5743,4.5748,4.5764,4.5775,4.5778,4.5781,4.5791,4.5797,4.5802,4.5807,4.5822,4.5829,4.5828,4.5835,4.5829,4.583,4.5832,4.5862,4.5864,4.5823,4.5823,4.5823,4.5823,4.5823,4.5823,4.569,4.5689,4.5701,4.5705,4.5717,4.5722,4.5727,4.5735,4.5744,4.575,4.5755,4.5765,4.5778,4.5786,4.5791,4.5796,4.5797,4.5789,4.5796,4.5824,4.5829,4.5834,4.5836,4.5789,4.5789,4.5765,4.5765,4.5765]}]]